Denver, CO

3:58 PM MDT on September 19, 2017 (GMT -0600)
Front Range

Weather History for KFTG - October, 2012

Change the Weather History Date:

Sunday, October 7, 2012

  Actual Average (KBKF) Record (KBKF)
Temperature  
Mean Temperature 40 °F -  
Max Temperature 51 °F 67 °F 80 °F (2006)
Min Temperature 28 °F 40 °F 26 °F (2012)
Degree Days  
Heating Degree Days 26    
Moisture  
Dew Point 26 °F    
Average Humidity 70    
Maximum Humidity 93    
Minimum Humidity 22    
Precipitation  
Precipitation 0.00 in - - ()
Sea Level Pressure  
Sea Level Pressure 30.14 in    
Wind  
Wind Speed 4 mph (South)    
Max Wind Speed 9 mph    
Max Gust Speed -    
Visibility 10 miles    
Events      
Averages and records for this station are not official NWS values.
T = Trace of Precipitation, MM = Missing Value Source: NWS Daily Summary

Daily Weather History Graph

Daily Weather History Graph

Search for Another Location

Airport or City:

Trip Planner

Search our weather history database for the weather conditions in past years. The results will help you decide how hot, cold, wet, or windy it might be!

Date:

Astronomy

Oct. 07, 2012 Rise Set
Actual Time 7:00 AM MDT 6:30 PM MDT
Civil Twilight 6:33 AM MDT 6:57 PM MDT
Nautical Twilight 6:02 AM MDT 7:28 PM MDT
Astronomical Twilight 5:31 AM MDT 7:59 PM MDT
Moon 11:44 PM MDT (10/7) 1:39 PM MDT (10/7)
Length of Visible Light 12h 23m
Length of Day
11h 29m
Waning Gibbous, 55% of the Moon is Illuminated
Oct 7
Waning Gibbous
Oct 8
Last Quarter
Oct 15
New
Oct 21
First Quarter
Oct 29
Full

Hourly Weather History & Observations

Time (MDT) Temp. Windchill Dew Point Humidity Pressure Visibility Wind Dir Wind Speed Gust Speed Precip Events Conditions
12:15 AM 33.8 °F 30.8 °F 30.2 °F 87% 30.24 in 10.0 mi SSE 3.5 mph - N/A   Overcast
12:36 AM 33.8 °F 30.8 °F 30.2 °F 87% 30.23 in 10.0 mi SE 3.5 mph - N/A   Overcast
12:56 AM 33.8 °F - 30.2 °F 87% 30.23 in 10.0 mi Calm Calm - N/A   Overcast
1:15 AM 33.8 °F 30.8 °F 30.2 °F 87% 30.22 in 10.0 mi SE 3.5 mph - N/A   Overcast
1:32 AM 33.8 °F 30.8 °F 30.2 °F 87% 30.22 in 10.0 mi SE 3.5 mph - N/A   Overcast
1:55 AM 33.8 °F 29.6 °F 30.2 °F 87% 30.22 in 10.0 mi SE 4.6 mph - N/A   Overcast
2:13 AM 33.8 °F 30.8 °F 30.2 °F 87% 30.22 in 10.0 mi SSE 3.5 mph - N/A   Overcast
2:34 AM 33.8 °F 30.8 °F 30.2 °F 87% 30.20 in 10.0 mi SSE 3.5 mph - N/A   Overcast
2:56 AM 33.8 °F - 30.2 °F 87% 30.20 in 10.0 mi Calm Calm - N/A   Mostly Cloudy
3:13 AM 32.0 °F - 30.2 °F 93% 30.19 in 10.0 mi Calm Calm - N/A   Scattered Clouds
3:36 AM 32.0 °F 28.7 °F 30.2 °F 93% 30.19 in 10.0 mi SSW 3.5 mph - N/A   Clear
3:56 AM 32.0 °F 26.4 °F 28.4 °F 87% 30.18 in 10.0 mi South 5.8 mph - N/A   Clear
4:14 AM 32.0 °F 26.4 °F 28.4 °F 87% 30.17 in 10.0 mi South 5.8 mph - N/A   Clear
4:33 AM 32.0 °F 25.6 °F 30.2 °F 93% 30.17 in 10.0 mi SSW 6.9 mph - N/A   Clear
4:56 AM 32.0 °F 25.6 °F 28.4 °F 87% 30.17 in 10.0 mi SSW 6.9 mph - N/A   Clear
5:16 AM 32.0 °F 26.4 °F 30.2 °F 93% 30.17 in 10.0 mi SW 5.8 mph - N/A   Clear
5:55 AM 32.0 °F 26.4 °F 28.4 °F 87% 30.17 in 10.0 mi SW 5.8 mph - N/A   Clear
6:15 AM 32.0 °F 26.4 °F 28.4 °F 87% 30.17 in 10.0 mi WSW 5.8 mph - N/A   Clear
6:24 AM 30.2 °F 23.4 °F 28.4 °F 93% 30.17 in 10.0 mi WSW 6.9 mph - N/A   Clear
6:50 AM 28.4 °F 22.2 °F 26.6 °F 93% 30.17 in 10.0 mi SW 5.8 mph - N/A   Partly Cloudy
6:54 AM 30.2 °F 24.3 °F 28.4 °F 93% 30.17 in 10.0 mi WSW 5.8 mph - N/A   Clear
7:58 AM 32.0 °F 24.8 °F 28.4 °F 87% 30.18 in 40.0 mi SW 8.1 mph - N/A   Partly Cloudy
8:47 AM 37.4 °F 30.8 °F 35.6 °F 93% 30.19 in 40.0 mi SW 9.2 mph - N/A   Partly Cloudy
9:59 AM 42.8 °F 38.6 °F 26.6 °F 53% 30.19 in 40.0 mi West 6.9 mph - N/A   Clear
10:47 AM 44.6 °F 41.4 °F 21.2 °F 39% 30.18 in 40.0 mi NNW 5.8 mph - N/A   Clear
11:53 AM 48.2 °F - 19.4 °F 32% 30.17 in 40.0 mi North 3.5 mph - N/A   Clear
12:45 PM 48.2 °F - 17.6 °F 30% 30.15 in 40.0 mi NE 4.6 mph - N/A   Clear
1:48 PM 50.0 °F - 17.6 °F 28% 30.12 in 50.0 mi NNE 4.6 mph - N/A   Partly Cloudy
2:50 PM 51.8 °F - 17.6 °F 26% 30.09 in 50.0 mi NE 5.8 mph - N/A   Partly Cloudy
3:47 PM 51.8 °F - 15.8 °F 24% 30.08 in 50.0 mi East 3.5 mph - N/A   Partly Cloudy
4:48 PM 51.8 °F - 17.6 °F 26% 30.08 in 50.0 mi NNE 3.5 mph - N/A   Partly Cloudy
5:48 PM 51.8 °F - 14.0 °F 22% 30.07 in 50.0 mi Calm Calm - N/A   Partly Cloudy
6:55 PM 44.6 °F 43.1 °F 24.8 °F 46% 30.07 in 50.0 mi South 3.5 mph - N/A   Partly Cloudy
7:55 PM 39.2 °F 34.2 °F 26.6 °F 61% 30.08 in 10.0 mi South 6.9 mph - N/A   Partly Cloudy
8:46 PM 37.4 °F 32.8 °F 26.6 °F 65% 30.08 in 10.0 mi South 5.8 mph - N/A   Clear
9:06 PM 37.4 °F 31.4 °F 24.8 °F 60% 30.09 in 10.0 mi South 8.1 mph - N/A   Clear
9:30 PM 35.6 °F 29.9 °F 26.6 °F 70% 30.08 in 10.0 mi South 6.9 mph - N/A   Clear
9:47 PM 37.4 °F 31.4 °F 24.8 °F 60% 30.07 in 10.0 mi South 8.1 mph - N/A   Clear
10:16 PM 37.4 °F 31.4 °F 23.0 °F 56% 30.07 in 10.0 mi South 8.1 mph - N/A   Clear
10:36 PM 35.6 °F 30.7 °F 24.8 °F 65% 30.06 in 10.0 mi South 5.8 mph - N/A   Clear
10:54 PM 35.6 °F 29.9 °F 24.8 °F 65% 30.05 in 10.0 mi SSE 6.9 mph - N/A   Clear
11:09 PM 35.6 °F 30.7 °F 24.8 °F 65% 30.04 in 10.0 mi SSE 5.8 mph - N/A   Clear
11:36 PM 35.6 °F 29.9 °F 26.6 °F 70% 30.04 in 10.0 mi SSE 6.9 mph - N/A   Clear
11:52 PM 33.8 °F 27.0 °F 26.6 °F 75% 30.03 in 10.0 mi South 8.1 mph - N/A   Clear